Weather History for Haines, AK

Change the Weather History Date:

Wednesday, May 2, 2012

  Actual Average Record
Temperature  
Mean Temperature 44 °F -  
Max Temperature 48 °F 50 °F 68 °F (2014)
Min Temperature 39 °F 35 °F 30 °F (2002)
Degree Days  
Heating Degree Days 22    
Moisture  
Dew Point 37 °F    
Average Humidity 82    
Maximum Humidity 89    
Minimum Humidity 66    
Precipitation  
Precipitation 0.03 in - - ()
Sea Level Pressure  
Sea Level Pressure 29.76 in    
Wind  
Wind Speed 11 mph (East)    
Max Wind Speed 20 mph    
Max Gust Speed 32 mph    
Visibility 10 miles    
Events Rain    
Averages and records for this station are not official NWS values.
T = Trace of Precipitation, MM = Missing Value Source: NWS Daily Summary

Daily Weather History Graph

Daily Weather History Graph

Search for Another Location

Airport:

Trip Planner

Search our weather history database for the weather conditions in past years. The results will help you decide how hot, cold, wet, or windy it might be!

Date:

Astronomy

May. 02, 2012 Rise Set
Actual Time 4:59 AM AKDT 9:00 PM AKDT
Civil Twilight 4:07 AM AKDT 9:52 PM AKDT
Nautical Twilight 2:47 AM AKDT 11:14 PM AKDT
Astronomical Twilight 1:31 AM AKDT Sun does not rise
Moon 4:35 PM AKDT (5/2) 3:29 AM AKDT (5/2)
Length of Visible Light 17h 45m
Length of Day
16h 00m
Waxing Gibbous, 84% of the Moon is Illuminated
May 2
Waxing Gibbous
May 5
Full
May 12
Last Quarter
May 20
New
May 28
First Quarter

Hourly Weather History & Observations

Time (AKDT) Temp. Windchill Dew Point Humidity Pressure Visibility Wind Dir Wind Speed Gust Speed Precip Events Conditions
12:54 AM 41.0 °F 34.7 °F 37.9 °F 89% 29.66 in 10.0 mi East 10.4 mph 19.6 mph 0.01 in   Overcast
1:54 AM 41.0 °F 35.2 °F 37.9 °F 89% 29.66 in 10.0 mi East 9.2 mph 18.4 mph 0.00 in   Overcast
2:54 AM 41.0 °F 34.3 °F 37.9 °F 89% 29.67 in 10.0 mi East 11.5 mph 19.6 mph N/A   Overcast
3:22 AM 41.0 °F 33.9 °F 37.4 °F 87% 29.67 in 10.0 mi East 12.7 mph 25.3 mph N/A   Overcast
3:54 AM 39.9 °F 33.9 °F 37.0 °F 89% 29.69 in 10.0 mi East 9.2 mph 28.8 mph N/A   Overcast
4:54 AM 41.0 °F 34.7 °F 37.0 °F 86% 29.69 in 10.0 mi East 10.4 mph 20.7 mph N/A   Overcast
5:14 AM 41.0 °F 33.9 °F 37.4 °F 87% 29.68 in 10.0 mi East 12.7 mph 26.5 mph N/A   Overcast
5:27 AM 41.0 °F 34.3 °F 37.4 °F 87% 29.69 in 10.0 mi ESE 11.5 mph 25.3 mph N/A   Overcast
5:54 AM 41.0 °F 33.5 °F 37.0 °F 86% 29.70 in 10.0 mi ESE 13.8 mph 21.9 mph N/A   Overcast
6:15 AM 41.0 °F 33.1 °F 37.4 °F 87% 29.70 in 10.0 mi East 15.0 mph 21.9 mph N/A   Overcast
6:54 AM 39.9 °F 32.9 °F 37.0 °F 89% 29.72 in 10.0 mi East 11.5 mph 20.7 mph 0.00 in Rain Light Rain
7:30 AM 41.0 °F 35.2 °F 37.4 °F 87% 29.72 in 10.0 mi East 9.2 mph 18.4 mph 0.00 in Rain Light Rain
7:54 AM 41.0 °F 33.1 °F 37.9 °F 89% 29.73 in 10.0 mi ESE 15.0 mph 24.2 mph 0.00 in   Overcast
8:01 AM 42.8 °F 36.2 °F 37.4 °F 81% 29.73 in 10.0 mi ESE 12.7 mph 24.2 mph N/A   Overcast
8:54 AM 42.1 °F 35.2 °F 37.9 °F 85% 29.75 in 10.0 mi ESE 12.7 mph 25.3 mph N/A   Overcast
9:54 AM 43.0 °F 36.8 °F 37.9 °F 82% 29.76 in 10.0 mi ESE 11.5 mph 23.0 mph N/A   Mostly Cloudy
10:54 AM 44.1 °F 37.4 °F 37.9 °F 79% 29.77 in 10.0 mi East 13.8 mph 26.5 mph N/A   Overcast
11:11 AM 44.6 °F 37.4 °F 37.4 °F 76% 29.77 in 10.0 mi ESE 16.1 mph 29.9 mph N/A   Mostly Cloudy
11:26 AM 44.6 °F 37.4 °F 37.4 °F 76% 29.77 in 10.0 mi ESE 16.1 mph 28.8 mph N/A   Scattered Clouds
11:54 AM 45.0 °F 37.1 °F 37.9 °F 76% 29.78 in 10.0 mi ESE 19.6 mph 32.2 mph N/A   Scattered Clouds
12:54 PM 48.0 °F - 39.0 °F 71% 29.79 in 10.0 mi ESE 16.1 mph 28.8 mph N/A   Scattered Clouds
1:54 PM 46.0 °F 40.2 °F 37.9 °F 73% 29.80 in 10.0 mi ESE 12.7 mph 23.0 mph N/A   Scattered Clouds
2:54 PM 46.0 °F 39.0 °F 37.0 °F 71% 29.81 in 10.0 mi ESE 17.3 mph 25.3 mph N/A   Scattered Clouds
3:54 PM 46.9 °F - 37.0 °F 68% 29.81 in 10.0 mi East 12.7 mph 18.4 mph N/A   Mostly Cloudy
4:54 PM 48.0 °F - 37.0 °F 66% 29.80 in 10.0 mi ESE 10.4 mph 19.6 mph N/A   Scattered Clouds
5:54 PM 46.0 °F 41.0 °F 36.0 °F 68% 29.80 in 10.0 mi ESE 10.4 mph 20.7 mph N/A   Mostly Cloudy
6:45 PM 42.8 °F 36.6 °F 37.4 °F 81% 29.80 in 8.0 mi East 11.5 mph 16.1 mph 0.01 in Rain Light Rain
6:54 PM 42.1 °F 36.6 °F 37.0 °F 82% 29.81 in 10.0 mi ENE 9.2 mph - 0.01 in Rain Light Rain
7:54 PM 42.1 °F 37.7 °F 37.0 °F 82% 29.82 in 10.0 mi East 6.9 mph 16.1 mph 0.01 in   Overcast
8:40 PM 42.8 °F 37.0 °F 37.4 °F 81% 29.81 in 10.0 mi ENE 10.4 mph - N/A   Overcast
8:54 PM 42.1 °F 37.1 °F 37.0 °F 82% 29.83 in 10.0 mi ENE 8.1 mph - N/A   Overcast
9:30 PM 42.8 °F 38.6 °F 37.4 °F 81% 29.83 in 10.0 mi ENE 6.9 mph - N/A   Overcast
9:54 PM 42.1 °F 39.2 °F 37.0 °F 82% 29.84 in 10.0 mi East 4.6 mph - N/A   Overcast
10:54 PM 42.1 °F 36.6 °F 37.0 °F 82% 29.85 in 10.0 mi East 9.2 mph - N/A   Overcast
11:29 PM 41.0 °F 36.4 °F 37.4 °F 87% 29.84 in 10.0 mi ESE 6.9 mph - N/A   Overcast
11:37 PM 41.0 °F 35.8 °F 35.6 °F 81% 29.84 in 10.0 mi ESE 8.1 mph - N/A   Overcast
11:54 PM 41.0 °F 35.8 °F 36.0 °F 82% 29.85 in 10.0 mi East 8.1 mph - N/A   Overcast